This demonstration page uses our WeatherBlox Daily Observations layout. Learn more.

Left ArrowRight Arrow

39.92423, -83.80882

Hourly Observations for July 31, 2019

Temp ( °F °C ) Dew Point ( °F °C ) Humidity (%) Winds ( mph kmh ) Pressure ( in mb ) Visibility ( mi km ) Precip ( " mm )
12:56 am 00:56 Clear 68 20 68 20 100 100 S 5 7 30.04 1017 7 11.26538 N/A
1:56 am 01:56 Clear with Mist and Fog 67 19.4 67 19.4 100 100 N N/A 30.03 1017 5 8.0467 N/A
2:56 am 02:56 Mostly Clear with Mist and Fog 65 18.3 65 18.3 100 100 N N/A 30.03 1017 4 6.43736 N/A
3:09 am 03:09 Mostly Clear with Mist and Fog 64 18 64 18 100 100 WNW 3 6 30.02 1017 1.75 2.816345 N/A
3:22 am 03:22 Clear with Mist and Fog 64 18 64 18 100 100 NW 3 6 30.02 1017 0.75 1.207005 N/A
3:31 am 03:31 Clear with Mist and Fog 64 18 64 18 100 100 NW 5 7 30.02 1017 1.25 2.011675 N/A
3:33 am 03:33 Clear with Mist and Fog 64 18 64 18 100 100 NW 5 7 30.02 1017 3 4.82802 N/A
3:56 am 03:56 Clear with Mist and Fog 65 18.3 65 18.3 100 100 W 3 6 30.03 1017 2.5 4.02335 N/A
4:11 am 04:11 Mostly Clear with Mist and Fog 66 19 66 19 100 100 NW 5 7 30.03 1017 3 4.82802 N/A
4:56 am 04:56 Cloudy with Mist and Fog 66 18.9 66 18.9 100 100 NNW 3 6 30.04 1017 6 9.65604 N/A
5:56 am 05:56 Clear 65 18.3 65 18.3 100 100 NNW 8 13 30.04 1017 10 16.0934 N/A
6:56 am 06:56 Cloudy 66 18.9 66 18.9 100 100 N N/A 30.07 1018 10 16.0934 N/A
7:56 am 07:56 Sunny 67 19.4 66 18.9 97 97 N 6 9 30.09 1019 10 16.0934 N/A
8:56 am 08:56 Sunny 70 21.1 64 17.8 82 82 N 6 9 30.09 1019 10 16.0934 N/A
9:56 am 09:56 Mostly Sunny 73 22.8 65 18.3 76 76 NW 3 6 30.1 1019 10 16.0934 N/A
10:56 am 10:56 Mostly Cloudy 76 24.4 66 18.9 72 72 NNW 6 9 30.1 1019 10 16.0934 N/A
11:56 am 11:56 Partly Cloudy 78 25.6 67 19.4 69 69 N N/A 30.11 1020 10 16.0934 N/A
12:56 pm 12:56 Mostly Cloudy 80 26.7 68 20 67 67 VRB 3 6 30.1 1019 10 16.0934 N/A
1:56 pm 13:56 Mostly Sunny 82 27.8 68 20 63 63 W 9 15 30.09 1019 10 16.0934 N/A
2:56 pm 14:56 Sunny 84 28.9 67 19.4 57 57 VRB 5 7 30.08 1019 10 16.0934 N/A
3:56 pm 15:56 Sunny 84 28.9 67 19.4 57 57 NW 8 13 30.08 1019 10 16.0934 N/A
4:56 pm 16:56 Mostly Sunny 84 28.9 66 18.9 55 55 N 8 13 30.06 1018 10 16.0934 N/A
5:56 pm 17:56 Mostly Sunny 83 28.3 66 18.9 57 57 NNW 10 17 30.06 1018 10 16.0934 N/A
6:56 pm 18:56 Sunny 81 27.2 65 18.3 58 58 NNW 9 15 30.06 1018 10 16.0934 N/A
7:56 pm 19:56 Sunny 78 25.6 65 18.3 64 64 NNW 8 13 30.07 1018 10 16.0934 N/A
8:56 pm 20:56 Clear 74 23.3 65 18.3 74 74 NNW 6 9 30.07 1018 10 16.0934 N/A
9:56 pm 21:56 Clear 72 22.2 65 18.3 79 79 NNW 5 7 30.09 1019 10 16.0934 N/A
10:56 pm 22:56 Clear 69 20.6 64 17.8 84 84 NNW 7 11 30.09 1019 10 16.0934 N/A
11:56 pm 23:56 Clear 68 20 63 17.2 84 84 NNW 5 7 30.1 1019 10 16.0934 N/A

Powered by AerisWeather